Location: ???????
(55.4362°N, 38.1183°E)
Time: 00:36:20
(UTC+00:00)

Aureole 3 Rocket - Pass Details

Date: 17 June 2021
Orbit: 399 x 1738 km, 82.5° (Epoch: 05 August)

Event Time Altitude Azimuth Distance (km) Brightness Sun altitude
Rises 22:44:52 0° 351° (N) 2,427 7.4 -9.5°
Reaches altitude 10° 22:46:45 10° 357° (N) 1,629 6.5 -9.4°
Maximum altitude 22:50:09 52° 76° (ENE) 679 3.5 -9.3°
Drops below altitude 10° 22:54:31 10° 153° (SSE) 2,094 5.4 -9.1°
Enters shadow 22:56:36 - 157° (SSE) 2,965 6.1 -9.0°
